Location: Caltech
(34.1382°N, 118.1253°W)
Time: 15:20:36
(UTC-07:00)

Cosmos 44 Rocket - Visible Passes

Search period start: 01 September 2015 00:00
Search period end: 11 September 2015 00:00
Orbit: 649 x 743 km, 65.1° (Epoch: 31 August)

Date Brightness Start Highest point End Pass type
(mag) Time Alt. Az. Time Alt. Az. Time Alt. Az.
02 Sep 5.1 05:17:06 10° S 05:21:02 28° ESE 05:25:07 10° NE visible
03 Sep 3.2 05:58:12 10° SW 06:02:51 72° WNW 06:07:38 10° NNE visible
04 Sep 4.4 04:59:10 10° S 05:03:29 39° ESE 05:07:55 10° NE visible
05 Sep 5.8 04:02:06 10° SE 04:04:16 14° ESE 04:06:44 10° ENE visible
05 Sep 3.4 05:40:50 10° SW 05:45:24 52° WNW 05:50:05 10° NNE visible
06 Sep 3.8 04:43:47 29° S 04:45:57 55° ESE 04:50:37 10° NE visible
07 Sep 5.4 03:46:39 19° ESE 03:46:42 19° ESE 03:50:06 10° ENE visible
07 Sep 3.8 05:25:25 21° WSW 05:27:59 38° NW 05:32:28 10° NNE visible
08 Sep 3.1 04:28:11 74° SSE 04:28:26 76° ESE 04:33:13 10° NNE visible
08 Sep 5.3 06:08:34 10° WNW 06:10:39 12° NW 06:12:32 10° NNW visible
09 Sep 5.5 03:30:51 21° ENE 03:30:51 21° ENE 03:33:07 10° NE visible
09 Sep 4.2 05:09:37 27° WNW 05:10:37 29° NW 05:14:46 10° N visible
10 Sep 3.9 04:12:13 48° NNE 04:12:13 48° NNE 04:15:44 10° NNE visible
